STARLINK-2021 (47604 NORAD) Tracking and Keplerian Element Data

This shows tracking and keplerian element data for the satellite.

Feedback or suggestion? Click here.




ElementValue
Catalog47604
NameSTARLINK-2021
Epoch Orbit1175
Epoch Day106.25002315
Epoch Year2021
RAAN136.3417
Inclination53.0536
Eccentricity0.0004279
Argument of Perigee8.6859
Mean Anonmoly157.7193
Mean Motion15.62770309
Decay Rate-7.048E-05
L11 47604U 21009BJ 21106.25002315 -.00007048 00000-0 -71083-4 0 9995
L22 47604 53.0536 136.3417 0004279 8.6859 157.7193 15.62770309 11755

Live tracking and technical data element details for STARLINK-2021 (NORAD 47604). STARLINK-2021 can be tracked NOW for your location showing map with azimuth and elevation plus other details from your city location.

Track the satellite on the map from your city or location and see movement details for azimuth, elevation, latitude, longitude, range, height, and movement on the map or in text.







IsCatalogInMostPopularTable: catalog: 47604, numindb: 20
Update: records affected: 1



GetName: 47604 STARLINK-2021

Hit Count: updated at: Fri, 16 Apr 2021 11:31:29 GMT